Regional Weather Roundup
Issued by NWS San Diego, CA

Home | Current Version | Previous Version | Text Only | Print | Product List | Glossary On
Versions: 1 2 3 4 5 6 7 8 9 10 11 12 13 14 15 16 17 18 19 20 21 22 23 24 25 26 27 28 29 30 31 32 33 34 35 36 37 38 39 40 41 42 43 44 45 46 47 48 49 50
000
ASUS46 KSGX 251612
RWRSGX

SAN DIEGO HOURLY WEATHER ROUNDUP
NATIONAL WEATHER SERVICE SAN DIEGO CA
900 AM PDT FRI MAY 25 2018

NOTE: "FAIR" INDICATES FEW OR NO CLOUDS BELOW 12,000 FEET WITH NO
SIGNIFICANT WEATHER AND/OR OBSTRUCTIONS TO VISIBILITY.

CAZ042-043-060-061-PZZ750-775-251700-

GREATER SAN DIEGO AREA

CITY           SKY/WX    TMP DP  RH WIND       PRES   REMARKS
SAN DIEGO AP   PTSUNNY   64  53  67 W13       30.14R
NATIONAL CITY    N/A     65  55  70 NW5       30.13S
CHULA VISTA      N/A     65  56  70 NW3       30.04R
IMPERIAL BEACH PTSUNNY   64  53  67 NW15      30.13R
BROWN FIELD    PTSUNNY   63  52  67 VRB6      30.12R
MIRAMAR MCAS   CLOUDY    65  50  58 NW6       30.12R
MONTGOMERY FLD CLOUDY    63  51  65 W8        30.12R
GILLESPIE FLD  CLOUDY    63  50  63 CALM      30.11F

$$

NORTH SAN DIEGO COUNTY

CITY           SKY/WX    TMP DP  RH WIND       PRES   REMARKS
CAMP PENDLETON PTSUNNY   64  52  64 SW5       30.11R
OCEANSIDE AP   CLOUDY    66  52  60 W8        30.11R
OCEANSIDE HBR    N/A     62  56  80 E5        30.14R
VISTA            N/A     62  53  73 W1        30.09R
CARLSBAD       PTSUNNY   63  53  70 W7        30.11R
DEL MAR          N/A     63  56  77 CALM      30.13S
LA JOLLA SCRIP   N/A     61  56  84 W3        30.12R
FALLBROOK        N/A     62  56  81 CALM      30.12R
ESCONDIDO        N/A     65  52  61 SW3       30.12S
SAN MARCOS       N/A     62  52  69 NW1       30.15R
POWAY            N/A     63  53  69 CALM      30.11S

$$

EAST SAN DIEGO COUNTY

CITY           SKY/WX    TMP DP  RH WIND       PRES   REMARKS
RAMONA         PTSUNNY   60  45  57 CALM      30.11S
LA MESA          N/A     60  53  79 CALM      30.06R
JAMUL            N/A     61  52  72 CALM      30.11F
CAMPO            N/A     56  44  64 W8        30.07S

$$

ORANGE COUNTY AND THE LOS ANGELES BASIN

CITY           SKY/WX    TMP DP  RH WIND       PRES   REMARKS
JOHN WAYNE AP  PTSUNNY   63  51  65 NW5       30.12S
LAGUNA BEACH     N/A     64  56  75 CALM      30.07S
LAKE FOREST FR   N/A     57  50  78 W1        30.02R
HUNTINGTON BCH   N/A     64  56  76 W2        30.13S
LOS ALAMITOS   CLOUDY    63  51  66 NW5       30.12S
FULLERTON      PTSUNNY   66  52  60 VRB3      30.11S
LONG BEACH     CLOUDY    63  51  65 NW8       30.12S
L.A. AP        MOSUNNY   63  49  60 W8        30.12S
L.A. DOWNTOWN  CLOUDY    62  52  69 CALM      30.11S

$$

THE INLAND EMPIRE

CITY           SKY/WX    TMP DP  RH WIND       PRES   REMARKS
CORONA         CLOUDY    62  51  67 W7        30.12S
CHINO          PTSUNNY   64  50  60 NW9       30.13R
ONTARIO        PTSUNNY   62  48  60 SW9       30.12R
SAN BERNARDINO CLOUDY    59  48  67 W3        30.12R HAZE
RIVERSIDE AP   PTSUNNY   60  49  66 W7        30.12R
MARCH ARB      PTSUNNY   59  52  77 NW9       30.11R
HORSETHIEF CYN   N/A     60  47  63 CALM      30.10R
PERRIS           N/A     58  53  86 W2          N/A
HEMET EAST       N/A     57  46  67 CALM      30.03S
FRENCH VALLEY  FAIR      59  46  63 SW7       30.11S
TEMECULA         N/A     60  52  74 SW6       30.17S

$$

SAN BERNARDINO AND RIVERSIDE COUNTY MOUNTAINS

CITY           SKY/WX    TMP DP  RH WIND       PRES   REMARKS
BIG BEAR AP    SUNNY     54  19  26 SW8G16    30.12S
ANGELUS OAKS     N/A     46  40  79 CALM      29.92S

$$

SOUTHERN DESERT INCLUDING THE COACHELLA VALLEY

CITY           SKY/WX    TMP DP  RH WIND       PRES   REMARKS
PALM SPRINGS   SUNNY     75  43  31 S5        29.96R
THOUSAND PALMS   N/A     72  47  40 W16       29.93R
PALM DESERT      N/A     76  48  36 CALM      30.64S
THERMAL        SUNNY     78  44  29 NW16      29.92S
BLYTHE         SUNNY     80  42  25 S10       29.92R
IMPERIAL AP    SUNNY     78  36  21 W12       29.94R
EL CENTRO NAS  SUNNY     80  32  17 W22G28    29.95S
YUMA AZ        SUNNY     79  40  24 NW10      29.94R
MEXICALI       SUNNY     75  39  27 W9        29.95R

$$

UPPER DESERT

CITY           SKY/WX    TMP DP  RH WIND       PRES   REMARKS
VICTORVILLE AP SUNNY    N/A N/A N/A CALM      30.06R
HESPERIA         N/A     56  43  61 S9        30.01R
APPLE VALLEY     N/A     61  45  56 N10       30.02R
PALMDALE       SUNNY     59  41  51 SW17G25   30.07R
LANCASTER      SUNNY     58  43  57 SW22G29   30.07R
DAGGETT        SUNNY     64  44  48 W22G29    30.01F
29 PALMS N     SUNNY     71  34  25 NW14      30.05R
NEEDLES        SUNNY     87  28  12 S9        29.91S

$$

REGIONAL REPORTS

CITY           SKY/WX    TMP DP  RH WIND       PRES   REMARKS
SANTA BARBARA  PTSUNNY   63  49  60 SW10      30.11R
SANDBERG       CLOUDY    45  42  89 S12       30.11S
LAS VEGAS NV   SUNNY     80  41  24 VRB5      29.92S
PHOENIX AZ     MOSUNNY   82  33  17 SE9       29.96S
TIJUANA        PTSUNNY   61  52  72 CALM      30.14S
ENSENADA NW      N/A     63  32  31 W10       30.04S

$$

OFFSHORE ISLANDS

CITY           SKY/WX    TMP DP  RH WIND       PRES   REMARKS
CATALINA ARPT  MOSUNNY   55  52  89 W8        30.13R
SAN CLEMENTE I MOSUNNY   61  53  75 NW7       30.15R
SAN NICOLAS IS MOSUNNY   62  50  64 NW10      30.13R

$$

MARINE AND OFFSHORE BUOY REPORTS

STATION/POSITION SKY/WX   TEMP    WIND        PRES    VSBY  SWELL
                          AIR SEA DIR/SP/G                  HT/PER/DIR
                          (F)     (DEG/KT/KT) (MB)    (MI)  (FT/S/D)
TANNER BANKS               60 61              1020.3R
S CLEMENTE BASIN           60 62  310/ 10/ 12 1020.3R         5/190/14
SAN NICOLAS IS.               59                N/A           3/290/12
SO. S. ROSA ISLA           57 58  240/  6/  6 1021.7R         5/200/14
W. S. BARBARA CH              57  300/  4/  4 1020.1R         5/280/12
M. S. BARBARA CH           58 57  250/ 10/ 12 1020.4
S. MONICA BASIN            60 63  280/  6/  8 1020.1
S PEDRO CHANNEL               62                N/A           3/260/12
CMP PENDLETON NS              64                N/A           3/200/15
OCEANSIDE OFFSHR              64                N/A           3/200/14
TORREY PINES OTR              64                N/A           3/190/14
SAN DIEGO BAY                 65              1019.6R
POINT LOMA SOUTH              64                N/A           3/200/14

$$




USA.gov is the U.S. government's official web portal to all federal, state and local government web resources and services.